#timestamp,LO_Frequency,Hit,StdDev 
1671469215.8,286047000.0,N
1671469235.6,286046999.8,N
1671469255.5,286047003.5,N
1671469275.3,286047001.6,N
1671469295.1,286047002.2,N
1671469315.9,286047001.5,N
1671469335.7,286047000.2,N
1671469355.6,286046999.7,N
1671469375.4,286047001.1,N
1671469395.2,286047000.0,N
1671469415.1,286047002.4,N
1671469416.0,286047002.4,N
1671469435.8,286047000.4,N
1671469455.6,286046999.7,N
1671469475.5,286047002.5,N
1671469495.3,286047000.3,N
1671469515.2,286046999.9,N
1671469535.9,286047000.6,N
1671469555.7,286046997.3,N
1671469575.6,286046999.2,N
1671469595.4,286046995.8,N
1671469615.2,286046993.4,Y
1671469635.1,286046995.5,P
1671469636.0,286046995.5,N
1671469655.8,286046997.6,N
1671469675.7,286046996.9,N
1671469695.5,286046999.1,N
1671469715.3,286046999.5,N
1671469735.2,286046998.2,N
1671469755.0,286047000.5,N
1671469755.9,286047000.5,N
1671469775.7,286047000.0,N
1671469795.6,286046999.7,N
1671469815.4,286046999.0,N
1671469835.3,286046998.2,N
1671469855.1,286046998.8,N
1671469856.0,286046998.8,N
1671469875.8,286046997.7,N
1671469895.7,286046997.3,N
1671469915.5,286046996.6,N
1671469935.3,286046998.4,N
1671469955.2,286047000.5,N
1671469975.0,286046998.6,N
1671469975.9,286046998.6,N
1671469995.8,286046999.1,N
1671470015.6,286046997.9,N
1671470035.5,286046995.7,Y
1671470055.3,286046998.1,P
1671470075.1,286047000.6,N
1671470095.9,286047001.2,N
1671470115.7,286046999.7,N
1671470135.5,286047001.6,N
1671470155.4,286047001.5,N
1671470175.2,286047002.4,N
1671470195.1,286047000.7,N
1671470196.0,286047000.7,N
1671470215.8,286047000.9,N
1671470235.6,286046998.5,N
1671470255.5,286047000.5,N
1671470275.3,286047000.5,N
1671470295.1,286047000.6,N
1671470315.9,286046999.0,N
1671470335.7,286046997.1,N
1671470355.6,286046997.3,N
1671470375.4,286046996.8,N
1671470395.2,286046998.6,N
1671470415.1,286047000.3,N
1671470416.0,286047000.3,N
1671470435.8,286047000.3,N
1671470455.7,286047000.4,N
1671470475.5,286046999.8,N
1671470495.3,286046999.7,N
1671470515.2,286047002.7,N
1671470535.9,286047000.4,N
1671470555.7,286047000.4,N
1671470575.6,286047002.7,N
1671470595.4,286047001.0,N
1671470615.3,286046999.4,N
1671470635.1,286046996.5,N
1671470636.0,286046996.5,N
1671470655.8,286046999.3,N
1671470675.7,286046995.1,N
1671470695.5,286046996.8,N
1671470715.3,286046998.5,N
1671470735.2,286047002.6,N
1671470755.0,286047002.2,N
1671470755.9,286047002.2,N
1671470775.8,286047002.7,N
1671470795.6,286047001.7,N
1671470815.4,286047001.3,N
1671470835.3,286047004.3,N
1671470855.1,286047003.5,N
1671470875.9,286047003.1,N
1671470895.7,286047003.5,N
1671470915.5,286047001.5,N
1671470935.4,286047004.4,N
1671470955.2,286047001.4,N
1671470975.1,286046999.8,N
1671470976.0,286046999.8,N
1671470995.8,286047002.3,N
1671471015.6,286047001.6,N
1671471035.5,286047001.7,N
1671471055.3,286047000.1,N
1671471075.2,286047000.8,N
1671471095.9,286046999.1,N
1671471115.7,286046998.3,N
1671471135.6,286046998.9,N
1671471155.4,286047000.5,N
1671471175.2,286046998.1,N
1671471195.1,286046999.9,N
1671471196.0,286046999.9,N
1671471215.8,286047000.7,N
1671471235.7,286047000.9,N
1671471255.5,286047002.6,N
1671471275.3,286047002.6,N
1671471295.2,286047000.7,N
1671471315.0,286046999.2,N
1671471315.9,286046999.2,N
1671471335.8,286046995.3,N
1671471355.6,286046996.3,N
1671471375.4,286046993.7,N
1671471395.3,286046997.4,N
1671471415.1,286047001.0,N
1671471435.8,286047000.9,N
1671471455.7,286047002.7,N
1671471475.5,286047002.8,N
1671471495.3,286047004.1,N
1671471515.2,286047003.6,N
1671471535.0,286047000.3,N
1671471535.9,286047000.3,N
1671471555.8,286047000.0,N
1671471575.6,286047000.6,N
1671471595.4,286047001.2,N
1671471615.3,286046998.5,N
1671471635.1,286046999.5,N
1671471655.9,286046996.5,N
1671471675.7,286046997.0,N
1671471695.5,286046996.6,N
1671471715.4,286046998.3,N
1671471735.2,286047001.0,N
1671471755.1,286047002.1,N
1671471756.0,286047002.1,N
1671471775.8,286047003.8,N
1671471795.6,286047001.4,N
1671471815.5,286046999.7,N
1671471835.3,286047004.3,N
1671471855.1,286046999.8,N
1671471875.9,286046999.9,N
1671471895.7,286047000.9,N
1671471915.6,286046999.8,N
1671471935.4,286047000.3,N
1671471955.2,286047011.9,Y
1671471975.1,286047004.2,P
1671471976.0,286047004.2,N
1671471995.8,286047002.1,N
1671472015.7,286047002.6,N
1671472035.5,286047000.1,N
1671472055.3,286047002.8,N
1671472075.2,286047000.2,N
1671472095.9,286047000.8,N
1671472115.7,286047000.2,N
1671472135.6,286047000.9,N
1671472155.4,286047002.0,N
1671472175.2,286047001.9,N
1671472195.1,286047002.5,N
1671472196.0,286047002.5,N
1671472215.8,286047002.1,N
1671472235.7,286047003.9,Y
1671472255.5,286047000.4,P
1671472275.3,286046999.7,N
1671472295.2,286047000.5,N
1671472315.0,286046999.9,N
1671472315.9,286046999.9,N
1671472335.8,286047002.4,Y
1671472355.6,286047000.4,P
1671472375.4,286047000.7,P
1671472395.3,286047000.2,N
1671472415.1,286047000.2,N
1671472435.8,286046999.3,Y
1671472455.7,286046999.6,P
1671472475.5,286046999.6,N
1671472495.4,286046997.1,P
1671472515.2,286046999.6,N
1671472535.0,286046996.6,Y
1671472535.9,286046996.6,P
1671472555.8,286046998.9,N
1671472575.6,286046999.2,N
1671472595.5,286046998.3,N
1671472615.3,286047001.2,N
1671472635.1,286046998.9,N
1671472655.9,286046996.9,N
1671472675.7,286046999.3,N
1671472695.5,286046998.4,N
1671472715.4,286047000.1,N
1671472735.2,286047002.6,N
1671472755.1,286047000.3,N
1671472756.0,286047000.3,N
1671472775.8,286046999.8,N
1671472795.6,286047000.0,N
